Weather History for KMTH - January, 2013

Change the Weather History Date:

Monday, January 21, 2013

  Actual Average Record
Temperature  
Mean Temperature 75 °F 70 °F  
Max Temperature 80 °F 75 °F - ()
Min Temperature 70 °F 64 °F - ()
Degree Days  
Heating Degree Days 0 1  
Month to date heating degree days 0 30  
Since 1 July heating degree days 6 51  
Cooling Degree Days 10 6  
Month to date cooling degree days 237 126  
Year to date cooling degree days 237 126  
Growing Degree Days 24 (Base 50)    
Moisture  
Dew Point 65 °F    
Average Humidity 76    
Maximum Humidity 84    
Minimum Humidity 67    
Precipitation  
Precipitation 0.00 in 0.05 in - ()
Month to date precipitation 0.54 1.05  
Year to date precipitation 0.54 1.05  
Snow  
Snow 0.00 in - - ()
Month to date snowfall 0.0  
Since 1 July snowfall 0.0  
Snow Depth 0.00 in    
Sea Level Pressure  
Sea Level Pressure 30.04 in    
Wind  
Wind Speed 6 mph (NW)    
Max Wind Speed 13 mph    
Max Gust Speed 20 mph    
Visibility 10 miles    
Events      
T = Trace of Precipitation, MM = Missing Value Source: NWS Daily Summary

Daily Weather History Graph

Daily Weather History Graph

Search for Another Location

Airport or City:

Trip Planner

Search our weather history database for the weather conditions in past years. The results will help you decide how hot, cold, wet, or windy it might be!

Date:

Astronomy

Jan. 21, 2013 Rise Set
Actual Time 7:09 AM EST 6:01 PM EST
Civil Twilight 6:45 AM EST 6:25 PM EST
Nautical Twilight 6:17 AM EST 6:53 PM EST
Astronomical Twilight 5:50 AM EST 7:21 PM EST
Moon 1:42 PM EST (1/21) 2:35 AM EST (1/21)
Length of Visible Light 11h 40m
Length of Day
10h 51m
Waxing Gibbous, 75% of the Moon is Illuminated
Jan 21
Waxing Gibbous
Jan 26
Full
Feb 3
Last Quarter
Feb 10
New
Feb 17
First Quarter

Hourly Weather History & Observations

Time (EST) Temp. Dew Point Humidity Pressure Visibility Wind Dir Wind Speed Gust Speed Precip Events Conditions
12:53 AM - - N/A% 30.04 in - North - - N/A   Unknown
1:53 AM 72.0 °F 66.0 °F 81% 30.03 in 10.0 mi North 3.5 mph - N/A   Overcast
2:53 AM 72.0 °F 64.0 °F 76% 30.02 in 10.0 mi NNE 3.5 mph - N/A   Mostly Cloudy
4:53 AM 71.1 °F 64.0 °F 78% 30.01 in 10.0 mi North 3.5 mph - N/A   Partly Cloudy
5:53 AM 71.1 °F 64.9 °F 81% 30.01 in 10.0 mi NE 5.8 mph - N/A   Clear
7:53 AM 71.1 °F 66.0 °F 84% 30.05 in 10.0 mi Calm Calm - N/A   Mostly Cloudy
8:53 AM 73.9 °F 66.0 °F 76% 30.07 in 10.0 mi NE 4.6 mph - N/A   Clear
9:53 AM 75.0 °F 66.9 °F 76% 30.08 in 10.0 mi East 3.5 mph - N/A   Partly Cloudy
10:53 AM 78.1 °F 66.9 °F 68% 30.09 in 10.0 mi Calm Calm - N/A   Partly Cloudy
11:53 AM 79.0 °F 66.9 °F 66% 30.07 in 10.0 mi SW 4.6 mph - N/A   Mostly Cloudy
12:24 PM 75.2 °F 66.2 °F 73% 30.06 in 10.0 mi WNW 5.8 mph - N/A   Overcast
12:36 PM 75.2 °F 66.2 °F 73% 30.06 in 10.0 mi WNW 4.6 mph - N/A   Overcast
12:53 PM 75.0 °F 66.9 °F 76% 30.05 in 10.0 mi NW 4.6 mph - N/A   Overcast
1:11 PM 77.0 °F 68.0 °F 74% 30.04 in 10.0 mi NNW 4.6 mph - N/A   Overcast
1:23 PM 75.2 °F 66.2 °F 73% 30.03 in 10.0 mi WNW 8.1 mph - N/A   Mostly Cloudy
1:53 PM 77.0 °F 66.9 °F 71% 30.02 in 10.0 mi WNW 8.1 mph - N/A   Clear
2:53 PM 75.9 °F 66.0 °F 71% 30.01 in 10.0 mi WNW 9.2 mph - N/A   Clear
3:53 PM 75.9 °F 64.0 °F 67% 30.01 in 10.0 mi WNW 8.1 mph - N/A   Scattered Clouds
4:53 PM 73.9 °F 63.0 °F 68% 30.03 in 10.0 mi WNW 9.2 mph - N/A   Mostly Cloudy
5:53 PM 73.0 °F 62.1 °F 68% 30.03 in 10.0 mi WNW 6.9 mph - N/A   Mostly Cloudy
6:53 PM 72.0 °F 62.1 °F 71% 30.05 in 10.0 mi WNW 9.2 mph - N/A   Clear
7:53 PM 71.1 °F 61.0 °F 70% 30.05 in 10.0 mi WNW 8.1 mph - N/A   Clear
8:53 PM 71.1 °F 62.1 °F 73% 30.06 in 10.0 mi NW 9.2 mph - N/A   Partly Cloudy
9:53 PM 71.1 °F 62.1 °F 73% 30.06 in 10.0 mi NW 8.1 mph 17.3 mph N/A   Scattered Clouds
10:53 PM 70.0 °F 61.0 °F 73% 30.07 in 10.0 mi NW 11.5 mph - N/A   Scattered Clouds
11:53 PM 70.0 °F 61.0 °F 73% 30.06 in 10.0 mi NW 10.4 mph 19.6 mph N/A   Partly Cloudy